Tracking 22836 objects as of 17-Apr-2021
HD Live streaming from Space Station
objects crossing your sky now

RADUGA 1-4

Track RADUGA 1-4 now!
RADUGA 1-4 is classified as:


NORAD ID: 25642
Int'l Code: 1999-010A
Perigee: 35,779.0 km
Apogee: 35,807.3 km
Inclination: 15.0 °
Period: 1,436.1 minutes
Semi major axis: 42164 km
RCS: 12.5893 m2 (large)
Launch date: February 28, 1999
Source: Commonwealth of Independent States (former USSR) (CIS)
Launch site: TYURATAM MISSILE AND SPACE COMPLEX (TTMTR)

Military communication.
aabbcc
Your satellite tracking list
Your tracking list is empty




NASA's NSSDC Master Catalog

Two Line Element Set (TLE):
1 25642U 99010A   21106.84219916 -.00000368  00000-0  00000-0 0  9996
2 25642  15.0302  17.4655 0003357 329.0213 275.6730  1.00273816 81027
Source of the keplerian elements: AFSPC